WXM80 ListenWXM80 Stop

You find our weather info also at:

UK Metoffice

WeatherCloud

Weather Underground

Northeastern Weather Network

AWEKAS

Citizen Weather Observer Program (CWOP)

HAMweather, WeatherForYou, PWS Weather


Weather Underground History page Text

Daily Summary for December 5, 2017 Units:  Both    English   Metric
« Previous Day
Next Day »
Daily Weekly Monthly Yearly Custom
  High: Low: Average:
Temperature: 61.4 °F /  16.3 °C 43.1 °F /  6.2 °C 54.4 °F /  12.4 °C
Dew Point: 58.5 °F /  14.7 °C 39.3 °F /  4.1 °C 51.1 °F /  10.6 °C
Humidity: 96 % 82 % 89 %
Wind Speed: 13.9 mph /  22.4 km/h - 5.4 mph /  8.7 km/h
Wind Gust: 24.0 mph /  38.6 km/h - -
Wind:- - South
Pressure: 30.41 in /  1029.7 hPa 29.80 in /  1009 hPa -
Precipitation: 0.04 in /  1.02 mm    
Historical Graphs
 
 
Tabular Data for December 5, 2017
Time Temperature Dew Point Pressure Wind Wind Speed Wind Gust Humidity Rainfall Rate (Hourly)
00:01 44.0 °F /  6.7 °C 39.5 °F /  4.2 °C 30.41 in /  1029.7 hPa Calm   1.2 mph /  1.9 km/h 84 % 0.00 in /  0 mm
00:11 44.0 °F /  6.7 °C 39.5 °F /  4.2 °C 30.41 in /  1029.7 hPa Calm   1.2 mph /  1.9 km/h 84 % 0.00 in /  0 mm
00:17 44.0 °F /  6.7 °C 39.5 °F /  4.2 °C 30.40 in /  1029.3 hPa Calm     84 % 0.00 in /  0 mm
00:22 44.0 °F /  6.7 °C 39.5 °F /  4.2 °C 30.41 in /  1029.7 hPa Calm     84 % 0.00 in /  0 mm
00:27 43.9 °F /  6.6 °C 39.4 °F /  4.1 °C 30.41 in /  1029.7 hPa Calm     84 % 0.00 in /  0 mm
00:32 43.9 °F /  6.6 °C 39.4 °F /  4.1 °C 30.40 in /  1029.3 hPa SE 0.3 mph /  0.5 km/h 1.2 mph /  1.9 km/h 84 % 0.00 in /  0 mm
00:37 43.9 °F /  6.6 °C 39.4 °F /  4.1 °C 30.40 in /  1029.3 hPa Calm   1.2 mph /  1.9 km/h 84 % 0.00 in /  0 mm
00:42 43.9 °F /  6.6 °C 39.4 °F /  4.1 °C 30.40 in /  1029.3 hPa Calm     84 % 0.00 in /  0 mm
00:47 43.8 °F /  6.6 °C 39.3 °F /  4.1 °C 30.40 in /  1029.3 hPa Calm     84 % 0.00 in /  0 mm
00:52 43.8 °F /  6.6 °C 39.3 °F /  4.1 °C 30.40 in /  1029.3 hPa SE 0.1 mph /  0.2 km/h 1.2 mph /  1.9 km/h 84 % 0.00 in /  0 mm
00:57 43.7 °F /  6.5 °C 39.5 °F /  4.2 °C 30.39 in /  1029 hPa SE 0.8 mph /  1.3 km/h 2.3 mph /  3.7 km/h 85 % 0.00 in /  0 mm
01:02 43.6 °F /  6.4 °C 39.4 °F /  4.1 °C 30.39 in /  1029 hPa SE 2.7 mph /  4.3 km/h 4.0 mph /  6.4 km/h 85 % 0.00 in /  0 mm
01:07 43.5 °F /  6.4 °C 39.3 °F /  4.1 °C 30.39 in /  1029 hPa SE 1.9 mph /  3.1 km/h 3.5 mph /  5.6 km/h 85 % 0.00 in /  0 mm
01:12 43.5 °F /  6.4 °C 39.3 °F /  4.1 °C 30.39 in /  1029 hPa SE 1.9 mph /  3.1 km/h 3.5 mph /  5.6 km/h 85 % 0.00 in /  0 mm
01:22 43.5 °F /  6.4 °C 39.6 °F /  4.2 °C 30.39 in /  1029 hPa SE 1.0 mph /  1.6 km/h 3.5 mph /  5.6 km/h 86 % 0.00 in /  0 mm
01:27 43.6 °F /  6.4 °C 39.7 °F /  4.3 °C 30.39 in /  1029 hPa SE 1.1 mph /  1.8 km/h 3.5 mph /  5.6 km/h 86 % 0.00 in /  0 mm
01:32 43.6 °F /  6.4 °C 39.7 °F /  4.3 °C 30.39 in /  1029 hPa SE 1.4 mph /  2.3 km/h 3.5 mph /  5.6 km/h 86 % 0.00 in /  0 mm
01:37 43.7 °F /  6.5 °C 39.8 °F /  4.3 °C 30.39 in /  1029 hPa SE 1.5 mph /  2.4 km/h 3.5 mph /  5.6 km/h 86 % 0.00 in /  0 mm
01:42 43.8 °F /  6.6 °C 39.9 °F /  4.4 °C 30.38 in /  1028.7 hPa SE 0.1 mph /  0.2 km/h 1.2 mph /  1.9 km/h 86 % 0.00 in /  0 mm
01:47 43.8 °F /  6.6 °C 39.9 °F /  4.4 °C 30.38 in /  1028.7 hPa Calm     86 % 0.00 in /  0 mm
01:53 43.9 °F /  6.6 °C 40.0 °F /  4.4 °C 30.39 in /  1029 hPa Calm     86 % 0.00 in /  0 mm
01:58 44.0 °F /  6.7 °C 40.1 °F /  4.5 °C 30.39 in /  1029 hPa Calm     86 % 0.00 in /  0 mm
02:03 44.0 °F /  6.7 °C 40.1 °F /  4.5 °C 30.39 in /  1029 hPa Calm     86 % 0.00 in /  0 mm
02:08 44.0 °F /  6.7 °C 40.1 °F /  4.5 °C 30.39 in /  1029 hPa Calm     86 % 0.00 in /  0 mm
02:13 44.0 °F /  6.7 °C 40.1 °F /  4.5 °C 30.38 in /  1028.7 hPa Calm     86 % 0.00 in /  0 mm
02:18 44.0 °F /  6.7 °C 40.1 °F /  4.5 °C 30.38 in /  1028.7 hPa Calm     86 % 0.00 in /  0 mm
02:23 43.9 °F /  6.6 °C 39.7 °F /  4.3 °C 30.38 in /  1028.7 hPa Calm     85 % 0.00 in /  0 mm
02:28 43.8 °F /  6.6 °C 39.6 °F /  4.2 °C 30.37 in /  1028.3 hPa Calm     85 % 0.00 in /  0 mm
02:33 43.8 °F /  6.6 °C 39.9 °F /  4.4 °C 30.37 in /  1028.3 hPa Calm     86 % 0.00 in /  0 mm
02:38 43.6 °F /  6.4 °C 39.7 °F /  4.3 °C 30.36 in /  1028 hPa Calm     86 % 0.00 in /  0 mm
02:43 43.5 °F /  6.4 °C 39.6 °F /  4.2 °C 30.36 in /  1028 hPa Calm     86 % 0.00 in /  0 mm
02:48 43.4 °F /  6.3 °C 39.5 °F /  4.2 °C 30.35 in /  1027.7 hPa Calm     86 % 0.00 in /  0 mm
02:53 43.3 °F /  6.3 °C 39.4 °F /  4.1 °C 30.35 in /  1027.7 hPa Calm     86 % 0.00 in /  0 mm
02:58 43.2 °F /  6.2 °C 39.6 °F /  4.2 °C 30.35 in /  1027.7 hPa Calm   1.2 mph /  1.9 km/h 87 % 0.00 in /  0 mm
02:59 43.2 °F /  6.2 °C 39.6 °F /  4.2 °C 30.35 in /  1027.7 hPa Calm     87 % 0.00 in /  0 mm
03:04 43.2 °F /  6.2 °C 39.6 °F /  4.2 °C 30.35 in /  1027.7 hPa SE 0.1 mph /  0.2 km/h 1.2 mph /  1.9 km/h 87 % 0.00 in /  0 mm
03:09 43.1 °F /  6.2 °C 39.8 °F /  4.3 °C 30.35 in /  1027.7 hPa SE 0.6 mph /  1 km/h 1.2 mph /  1.9 km/h 88 % 0.00 in /  0 mm
03:15 43.1 °F /  6.2 °C 39.8 °F /  4.3 °C 30.35 in /  1027.7 hPa SE 0.1 mph /  0.2 km/h 2.3 mph /  3.7 km/h 88 % 0.00 in /  0 mm
03:20 43.1 °F /  6.2 °C 39.8 °F /  4.3 °C 30.35 in /  1027.7 hPa Calm     88 % 0.00 in /  0 mm
03:25 43.2 °F /  6.2 °C 40.2 °F /  4.6 °C 30.35 in /  1027.7 hPa Calm     89 % 0.00 in /  0 mm
03:30 43.2 °F /  6.2 °C 40.2 °F /  4.6 °C 30.34 in /  1027.3 hPa SE 0.6 mph /  1 km/h 2.3 mph /  3.7 km/h 89 % 0.00 in /  0 mm
03:35 43.3 °F /  6.3 °C 40.6 °F /  4.8 °C 30.34 in /  1027.3 hPa SE 0.1 mph /  0.2 km/h 1.2 mph /  1.9 km/h 90 % 0.00 in /  0 mm
03:40 43.4 °F /  6.3 °C 40.7 °F /  4.8 °C 30.34 in /  1027.3 hPa SE 0.9 mph /  1.4 km/h 3.5 mph /  5.6 km/h 90 % 0.00 in /  0 mm
03:45 43.6 °F /  6.4 °C 40.9 °F /  4.9 °C 30.34 in /  1027.3 hPa SE 1.4 mph /  2.3 km/h 2.3 mph /  3.7 km/h 90 % 0.00 in /  0 mm
03:50 43.9 °F /  6.6 °C 41.4 °F /  5.2 °C 30.33 in /  1027 hPa SE 1.7 mph /  2.7 km/h 3.5 mph /  5.6 km/h 91 % 0.00 in /  0 mm
03:55 44.5 °F /  6.9 °C 42.0 °F /  5.6 °C 30.33 in /  1027 hPa SE 2.5 mph /  4 km/h 4.6 mph /  7.4 km/h 91 % 0.00 in /  0 mm
04:00 44.8 °F /  7.1 °C 42.3 °F /  5.7 °C 30.33 in /  1027 hPa SE 2.0 mph /  3.2 km/h 4.0 mph /  6.4 km/h 91 % 0.00 in /  0 mm
04:10 45.8 °F /  7.7 °C 42.7 °F /  5.9 °C 30.33 in /  1027 hPa SSE 2.1 mph /  3.4 km/h 6.9 mph /  11.1 km/h 89 % 0.00 in /  0 mm
04:15 46.3 °F /  7.9 °C 43.2 °F /  6.2 °C 30.33 in /  1027 hPa SSE 0.1 mph /  0.2 km/h 2.3 mph /  3.7 km/h 89 % 0.00 in /  0 mm
04:20 46.7 °F /  8.2 °C 43.3 °F /  6.3 °C 30.33 in /  1027 hPa SSE 2.5 mph /  4 km/h 6.9 mph /  11.1 km/h 88 % 0.00 in /  0 mm
04:25 47.1 °F /  8.4 °C 43.4 °F /  6.3 °C 30.33 in /  1027 hPa SSE 1.6 mph /  2.6 km/h 3.5 mph /  5.6 km/h 87 % 0.00 in /  0 mm
04:30 47.6 °F /  8.7 °C 43.6 °F /  6.4 °C 30.32 in /  1026.6 hPa SSE 2.2 mph /  3.5 km/h 5.8 mph /  9.3 km/h 86 % 0.00 in /  0 mm
04:35 48.1 °F /  8.9 °C 43.8 °F /  6.6 °C 30.32 in /  1026.6 hPa SSE 2.6 mph /  4.2 km/h 6.9 mph /  11.1 km/h 85 % 0.00 in /  0 mm
04:40 48.4 °F /  9.1 °C 43.8 °F /  6.6 °C 30.32 in /  1026.6 hPa SSE 2.3 mph /  3.7 km/h 6.9 mph /  11.1 km/h 84 % 0.00 in /  0 mm
04:45 48.7 °F /  9.3 °C 44.1 °F /  6.7 °C 30.32 in /  1026.6 hPa SSE 5.3 mph /  8.5 km/h 9.2 mph /  14.8 km/h 84 % 0.00 in /  0 mm
04:50 48.9 °F /  9.4 °C 44.0 °F /  6.7 °C 30.32 in /  1026.6 hPa SE 1.9 mph /  3.1 km/h 3.5 mph /  5.6 km/h 83 % 0.00 in /  0 mm
04:55 49.0 °F /  9.4 °C 44.1 °F /  6.7 °C 30.32 in /  1026.6 hPa SSE 2.9 mph /  4.7 km/h 3.5 mph /  5.6 km/h 83 % 0.00 in /  0 mm
05:00 49.0 °F /  9.4 °C 44.1 °F /  6.7 °C 30.32 in /  1026.6 hPa SSE 5.7 mph /  9.2 km/h 8.1 mph /  13 km/h 83 % 0.00 in /  0 mm
05:05 49.1 °F /  9.5 °C 44.2 °F /  6.8 °C 30.32 in /  1026.6 hPa SSE 2.7 mph /  4.3 km/h 3.5 mph /  5.6 km/h 83 % 0.00 in /  0 mm
05:10 49.2 °F /  9.6 °C 44.3 °F /  6.8 °C 30.32 in /  1026.6 hPa SSE 2.6 mph /  4.2 km/h 4.6 mph /  7.4 km/h 83 % 0.00 in /  0 mm
05:11 49.2 °F /  9.6 °C 44.3 °F /  6.8 °C 30.32 in /  1026.6 hPa SSE 2.0 mph /  3.2 km/h 6.0 mph /  9.7 km/h 83 % 0.00 in /  0 mm
05:15 49.3 °F /  9.6 °C 44.0 °F /  6.7 °C 30.31 in /  1026.3 hPa SSE 2.0 mph /  3.2 km/h 5.0 mph /  8 km/h 82 % 0.00 in /  0 mm
05:21 49.4 °F /  9.7 °C 44.1 °F /  6.7 °C 30.31 in /  1026.3 hPa SSE 6.0 mph /  9.7 km/h 8.0 mph /  12.9 km/h 82 % 0.00 in /  0 mm
05:26 49.4 °F /  9.7 °C 44.1 °F /  6.7 °C 30.31 in /  1026.3 hPa SE 2.8 mph /  4.5 km/h 5.8 mph /  9.3 km/h 82 % 0.00 in /  0 mm
05:31 49.4 °F /  9.7 °C 44.1 °F /  6.7 °C 30.31 in /  1026.3 hPa SE 1.4 mph /  2.3 km/h 3.5 mph /  5.6 km/h 82 % 0.00 in /  0 mm
05:36 49.4 °F /  9.7 °C 44.1 °F /  6.7 °C 30.31 in /  1026.3 hPa SSE 4.6 mph /  7.4 km/h 8.1 mph /  13 km/h 82 % 0.00 in /  0 mm
05:46 49.4 °F /  9.7 °C 44.1 °F /  6.7 °C 30.31 in /  1026.3 hPa SE 2.2 mph /  3.5 km/h 4.6 mph /  7.4 km/h 82 % 0.00 in /  0 mm
05:56 49.4 °F /  9.7 °C 44.1 °F /  6.7 °C 30.30 in /  1026 hPa SSE 5.0 mph /  8 km/h 10.0 mph /  16.1 km/h 82 % 0.00 in /  0 mm
06:01 49.5 °F /  9.7 °C 44.2 °F /  6.8 °C 30.30 in /  1026 hPa SSE 3.5 mph /  5.6 km/h 6.9 mph /  11.1 km/h 82 % 0.00 in /  0 mm
06:06 49.7 °F /  9.8 °C 44.7 °F /  7.1 °C 30.29 in /  1025.6 hPa SSE 4.7 mph /  7.6 km/h 8.1 mph /  13 km/h 83 % 0.00 in /  0 mm
06:11 49.8 °F /  9.9 °C 44.8 °F /  7.1 °C 30.30 in /  1026 hPa SE 5.7 mph /  9.2 km/h 6.9 mph /  11.1 km/h 83 % 0.00 in /  0 mm
06:12 49.8 °F /  9.9 °C 44.8 °F /  7.1 °C 30.30 in /  1026 hPa SE 4.3 mph /  6.9 km/h 11.5 mph /  18.5 km/h 83 % 0.00 in /  0 mm
06:17 50.0 °F /  10 °C 44.7 °F /  7.1 °C 30.30 in /  1026 hPa ESE 5.1 mph /  8.2 km/h 8.0 mph /  12.9 km/h 82 % 0.00 in /  0 mm
06:22 50.1 °F /  10.1 °C 44.8 °F /  7.1 °C 30.29 in /  1025.6 hPa SSE 3.9 mph /  6.3 km/h 6.9 mph /  11.1 km/h 82 % 0.00 in /  0 mm
06:27 50.3 °F /  10.2 °C 45.3 °F /  7.4 °C 30.29 in /  1025.6 hPa SSE 3.8 mph /  6.1 km/h 9.0 mph /  14.5 km/h 83 % 0.00 in /  0 mm
06:32 50.5 °F /  10.3 °C 45.5 °F /  7.5 °C 30.29 in /  1025.6 hPa SE 2.2 mph /  3.5 km/h 5.8 mph /  9.3 km/h 83 % 0.00 in /  0 mm
06:37 50.6 °F /  10.3 °C 45.6 °F /  7.6 °C 30.29 in /  1025.6 hPa SE 3.8 mph /  6.1 km/h 4.6 mph /  7.4 km/h 83 % 0.00 in /  0 mm
06:42 50.6 °F /  10.3 °C 45.6 °F /  7.6 °C 30.29 in /  1025.6 hPa South 2.4 mph /  3.9 km/h 3.5 mph /  5.6 km/h 83 % 0.00 in /  0 mm
06:47 50.7 °F /  10.4 °C 45.7 °F /  7.6 °C 30.29 in /  1025.6 hPa SSE 2.2 mph /  3.5 km/h 4.0 mph /  6.4 km/h 83 % 0.00 in /  0 mm
06:52 50.8 °F /  10.4 °C 45.8 °F /  7.7 °C 30.29 in /  1025.6 hPa SSE 5.0 mph /  8 km/h 10.4 mph /  16.7 km/h 83 % 0.00 in /  0 mm
06:57 51.0 °F /  10.6 °C 46.0 °F /  7.8 °C 30.29 in /  1025.6 hPa SSE 5.0 mph /  8 km/h 11.5 mph /  18.5 km/h 83 % 0.00 in /  0 mm
07:02 51.2 °F /  10.7 °C 46.2 °F /  7.9 °C 30.30 in /  1026 hPa SSE 5.5 mph /  8.9 km/h 11.5 mph /  18.5 km/h 83 % 0.00 in /  0 mm
07:07 51.4 °F /  10.8 °C 46.4 °F /  8 °C 30.29 in /  1025.6 hPa South 6.2 mph /  10 km/h 9.2 mph /  14.8 km/h 83 % 0.00 in /  0 mm
07:12 51.5 °F /  10.8 °C 46.5 °F /  8.1 °C 30.28 in /  1025.3 hPa South 6.8 mph /  10.9 km/h 6.9 mph /  11.1 km/h 83 % 0.00 in /  0 mm
07:17 51.6 °F /  10.9 °C 46.6 °F /  8.1 °C 30.29 in /  1025.6 hPa SE 8.5 mph /  13.7 km/h 19.6 mph /  31.5 km/h 83 % 0.00 in /  0 mm
07:22 51.7 °F /  10.9 °C 46.7 °F /  8.2 °C 30.29 in /  1025.6 hPa South 4.5 mph /  7.2 km/h 11.5 mph /  18.5 km/h 83 % 0.00 in /  0 mm
07:28 51.7 °F /  10.9 °C 46.7 °F /  8.2 °C 30.29 in /  1025.6 hPa SE 6.5 mph /  10.5 km/h 8.1 mph /  13 km/h 83 % 0.00 in /  0 mm
07:38 51.7 °F /  10.9 °C 46.7 °F /  8.2 °C 30.27 in /  1024.9 hPa South 9.5 mph /  15.3 km/h 16.1 mph /  25.9 km/h 83 % 0.00 in /  0 mm
07:48 51.8 °F /  11 °C 47.1 °F /  8.4 °C 30.28 in /  1025.3 hPa SSE 4.3 mph /  6.9 km/h 11.5 mph /  18.5 km/h 84 % 0.00 in /  0 mm
07:53 51.9 °F /  11.1 °C 47.2 °F /  8.4 °C 30.28 in /  1025.3 hPa SSE 4.1 mph /  6.6 km/h 11.5 mph /  18.5 km/h 84 % 0.00 in /  0 mm
07:58 52.0 °F /  11.1 °C 47.3 °F /  8.5 °C 30.28 in /  1025.3 hPa South 7.0 mph /  11.3 km/h 11.5 mph /  18.5 km/h 84 % 0.00 in /  0 mm
08:03 52.1 °F /  11.2 °C 47.4 °F /  8.6 °C 30.27 in /  1024.9 hPa SE 3.9 mph /  6.3 km/h 8.1 mph /  13 km/h 84 % 0.00 in /  0 mm
08:08 52.2 °F /  11.2 °C 47.5 °F /  8.6 °C 30.27 in /  1024.9 hPa SSE 6.6 mph /  10.6 km/h 11.5 mph /  18.5 km/h 84 % 0.00 in /  0 mm
08:13 52.3 °F /  11.3 °C 47.9 °F /  8.8 °C 30.27 in /  1024.9 hPa SSE 8.1 mph /  13 km/h 12.7 mph /  20.4 km/h 85 % 0.00 in /  0 mm
08:18 52.3 °F /  11.3 °C 47.9 °F /  8.8 °C 30.27 in /  1024.9 hPa SE 11.1 mph /  17.9 km/h 18.4 mph /  29.6 km/h 85 % 0.00 in /  0 mm
08:23 52.4 °F /  11.3 °C 47.7 °F /  8.7 °C 30.26 in /  1024.6 hPa SE 9.4 mph /  15.1 km/h 15.0 mph /  24.1 km/h 84 % 0.00 in /  0 mm
08:28 52.5 °F /  11.4 °C 48.1 °F /  8.9 °C 30.26 in /  1024.6 hPa SSE 6.7 mph /  10.8 km/h 12.7 mph /  20.4 km/h 85 % 0.00 in /  0 mm
08:33 52.6 °F /  11.4 °C 48.2 °F /  9 °C 30.26 in /  1024.6 hPa SSE 5.2 mph /  8.4 km/h 12.0 mph /  19.3 km/h 85 % 0.00 in /  0 mm
08:38 52.7 °F /  11.5 °C 48.0 °F /  8.9 °C 30.25 in /  1024.3 hPa South 7.9 mph /  12.7 km/h 13.8 mph /  22.2 km/h 84 % 0.00 in /  0 mm
08:43 52.8 °F /  11.6 °C 48.1 °F /  8.9 °C 30.26 in /  1024.6 hPa SE 6.8 mph /  10.9 km/h 12.7 mph /  20.4 km/h 84 % 0.00 in /  0 mm
08:48 52.9 °F /  11.6 °C 48.2 °F /  9 °C 30.26 in /  1024.6 hPa SSE 9.6 mph /  15.4 km/h 15.0 mph /  24.1 km/h 84 % 0.00 in /  0 mm
08:53 52.9 °F /  11.6 °C 48.5 °F /  9.2 °C 30.26 in /  1024.6 hPa South 7.7 mph /  12.4 km/h 11.5 mph /  18.5 km/h 85 % 0.00 in /  0 mm
08:58 52.9 °F /  11.6 °C 48.8 °F /  9.3 °C 30.26 in /  1024.6 hPa SSW 7.5 mph /  12.1 km/h 11.5 mph /  18.5 km/h 86 % 0.00 in /  0 mm
09:03 52.9 °F /  11.6 °C 48.8 °F /  9.3 °C 30.26 in /  1024.6 hPa SSE 5.3 mph /  8.5 km/h 10.4 mph /  16.7 km/h 86 % 0.00 in /  0 mm
09:08 52.9 °F /  11.6 °C 48.8 °F /  9.3 °C 30.25 in /  1024.3 hPa South 4.5 mph /  7.2 km/h 9.2 mph /  14.8 km/h 86 % 0.00 in /  0 mm
09:13 53.0 °F /  11.7 °C 48.9 °F /  9.4 °C 30.25 in /  1024.3 hPa SE 8.2 mph /  13.2 km/h 13.0 mph /  20.9 km/h 86 % 0.00 in /  0 mm
09:18 53.1 °F /  11.7 °C 49.0 °F /  9.4 °C 30.24 in /  1023.9 hPa SE 4.3 mph /  6.9 km/h 12.7 mph /  20.4 km/h 86 % 0.00 in /  0 mm
09:23 53.2 °F /  11.8 °C 49.1 °F /  9.5 °C 30.24 in /  1023.9 hPa South 8.1 mph /  13 km/h 11.5 mph /  18.5 km/h 86 % 0.00 in /  0 mm
09:28 53.3 °F /  11.8 °C 49.2 °F /  9.6 °C 30.24 in /  1023.9 hPa SE 6.9 mph /  11.1 km/h 6.9 mph /  11.1 km/h 86 % 0.00 in /  0 mm
09:33 53.4 °F /  11.9 °C 49.6 °F /  9.8 °C 30.23 in /  1023.6 hPa SSE 4.5 mph /  7.2 km/h 11.5 mph /  18.5 km/h 87 % 0.00 in /  0 mm
09:38 53.5 °F /  11.9 °C 49.7 °F /  9.8 °C 30.23 in /  1023.6 hPa SSE 5.5 mph /  8.9 km/h 11.0 mph /  17.7 km/h 87 % 0.00 in /  0 mm
09:43 53.6 °F /  12 °C 49.8 °F /  9.9 °C 30.24 in /  1023.9 hPa SSE 4.2 mph /  6.8 km/h 7.0 mph /  11.3 km/h 87 % 0.00 in /  0 mm
09:48 53.6 °F /  12 °C 49.8 °F /  9.9 °C 30.23 in /  1023.6 hPa South 3.1 mph /  5 km/h 6.0 mph /  9.7 km/h 87 % 0.00 in /  0 mm
09:53 53.7 °F /  12.1 °C 49.9 °F /  9.9 °C 30.23 in /  1023.6 hPa SSE 4.8 mph /  7.7 km/h 11.5 mph /  18.5 km/h 87 % 0.00 in /  0 mm
09:58 53.8 °F /  12.1 °C 50.3 °F /  10.2 °C 30.22 in /  1023.2 hPa SE 7.7 mph /  12.4 km/h 11.5 mph /  18.5 km/h 88 % 0.00 in /  0 mm
10:13 54.2 °F /  12.3 °C 50.7 °F /  10.4 °C 30.22 in /  1023.2 hPa SSE 9.4 mph /  15.1 km/h 17.3 mph /  27.8 km/h 88 % 0.00 in /  0 mm
10:18 54.4 °F /  12.4 °C 50.9 °F /  10.5 °C 30.22 in /  1023.2 hPa South 3.4 mph /  5.5 km/h 8.1 mph /  13 km/h 88 % 0.00 in /  0 mm
10:23 54.7 °F /  12.6 °C 51.2 °F /  10.7 °C 30.21 in /  1022.9 hPa South 9.7 mph /  15.6 km/h 18.4 mph /  29.6 km/h 88 % 0.00 in /  0 mm
10:28 55.0 °F /  12.8 °C 51.2 °F /  10.7 °C 30.21 in /  1022.9 hPa SE 5.6 mph /  9 km/h 11.5 mph /  18.5 km/h 87 % 0.00 in /  0 mm
10:33 55.1 °F /  12.8 °C 51.3 °F /  10.7 °C 30.20 in /  1022.6 hPa SSE 7.6 mph /  12.2 km/h 14.0 mph /  22.5 km/h 87 % 0.00 in /  0 mm
10:39 55.3 °F /  12.9 °C 51.5 °F /  10.8 °C 30.20 in /  1022.6 hPa SSW 6.7 mph /  10.8 km/h 12.0 mph /  19.3 km/h 87 % 0.00 in /  0 mm
10:44 55.5 °F /  13.1 °C 51.7 °F /  10.9 °C 30.19 in /  1022.2 hPa SSW 6.8 mph /  10.9 km/h 12.7 mph /  20.4 km/h 87 % 0.00 in /  0 mm
10:49 55.6 °F /  13.1 °C 51.8 °F /  11 °C 30.19 in /  1022.2 hPa SSE 7.0 mph /  11.3 km/h 16.1 mph /  25.9 km/h 87 % 0.00 in /  0 mm
10:54 55.5 °F /  13.1 °C 52.0 °F /  11.1 °C 30.18 in /  1021.9 hPa South 8.1 mph /  13 km/h 12.0 mph /  19.3 km/h 88 % 0.00 in /  0 mm
10:59 55.5 °F /  13.1 °C 52.3 °F /  11.3 °C 30.18 in /  1021.9 hPa South 7.5 mph /  12.1 km/h 16.1 mph /  25.9 km/h 89 % 0.00 in /  0 mm
11:04 55.6 °F /  13.1 °C 52.4 °F /  11.3 °C 30.17 in /  1021.6 hPa SSE 6.8 mph /  10.9 km/h 12.7 mph /  20.4 km/h 89 % 0.00 in /  0 mm
11:09 55.6 °F /  13.1 °C 52.4 °F /  11.3 °C 30.17 in /  1021.6 hPa SE 5.5 mph /  8.9 km/h 18.4 mph /  29.6 km/h 89 % 0.00 in /  0 mm
11:14 55.7 °F /  13.2 °C 52.5 °F /  11.4 °C 30.17 in /  1021.6 hPa South 7.8 mph /  12.6 km/h 15.0 mph /  24.1 km/h 89 % 0.00 in /  0 mm
11:19 55.7 °F /  13.2 °C 52.5 °F /  11.4 °C 30.16 in /  1021.2 hPa South 8.2 mph /  13.2 km/h 16.1 mph /  25.9 km/h 89 % 0.00 in /  0 mm
11:24 55.8 °F /  13.2 °C 52.9 °F /  11.6 °C 30.16 in /  1021.2 hPa SSE 8.0 mph /  12.9 km/h 11.5 mph /  18.5 km/h 90 % 0.00 in /  0 mm
11:29 55.8 °F /  13.2 °C 52.9 °F /  11.6 °C 30.16 in /  1021.2 hPa SE 6.8 mph /  10.9 km/h 11.0 mph /  17.7 km/h 90 % 0.00 in /  0 mm
11:34 55.9 °F /  13.3 °C 53.0 °F /  11.7 °C 30.15 in /  1020.9 hPa South 2.8 mph /  4.5 km/h 7.0 mph /  11.3 km/h 90 % 0.00 in /  0 mm
11:39 55.9 °F /  13.3 °C 53.0 °F /  11.7 °C 30.15 in /  1020.9 hPa SSW 8.3 mph /  13.4 km/h 11.5 mph /  18.5 km/h 90 % 0.00 in /  0 mm
11:44 55.9 °F /  13.3 °C 53.0 °F /  11.7 °C 30.15 in /  1020.9 hPa SSE 11.7 mph /  18.8 km/h 18.4 mph /  29.6 km/h 90 % 0.00 in /  0 mm
11:49 55.9 °F /  13.3 °C 53.3 °F /  11.8 °C 30.14 in /  1020.5 hPa SSE 6.1 mph /  9.8 km/h 11.5 mph /  18.5 km/h 91 % 0.00 in /  0 mm
11:54 55.9 °F /  13.3 °C 53.3 °F /  11.8 °C 30.14 in /  1020.5 hPa SSW 6.2 mph /  10 km/h 10.0 mph /  16.1 km/h 91 % 0.00 in /  0 mm
11:59 55.9 °F /  13.3 °C 53.3 °F /  11.8 °C 30.13 in /  1020.2 hPa South 6.6 mph /  10.6 km/h 12.7 mph /  20.4 km/h 91 % 0.00 in /  0 mm
12:04 56.1 °F /  13.4 °C 53.5 °F /  11.9 °C 30.13 in /  1020.2 hPa SE 4.2 mph /  6.8 km/h 14.0 mph /  22.5 km/h 91 % 0.00 in /  0 mm
12:09 56.2 °F /  13.4 °C 53.6 °F /  12 °C 30.14 in /  1020.5 hPa South 6.8 mph /  10.9 km/h 8.1 mph /  13 km/h 91 % 0.00 in /  0 mm
12:14 56.3 °F /  13.5 °C 53.7 °F /  12.1 °C 30.13 in /  1020.2 hPa South 5.3 mph /  8.5 km/h 10.4 mph /  16.7 km/h 91 % 0.00 in /  0 mm
12:19 56.4 °F /  13.6 °C 53.8 °F /  12.1 °C 30.13 in /  1020.2 hPa SSE 5.5 mph /  8.9 km/h 11.5 mph /  18.5 km/h 91 % 0.00 in /  0 mm
12:24 56.6 °F /  13.7 °C 54.0 °F /  12.2 °C 30.13 in /  1020.2 hPa SSW 4.7 mph /  7.6 km/h 9.2 mph /  14.8 km/h 91 % 0.00 in /  0 mm
12:29 56.8 °F /  13.8 °C 54.2 °F /  12.3 °C 30.12 in /  1019.9 hPa South 4.7 mph /  7.6 km/h 9.2 mph /  14.8 km/h 91 % 0.00 in /  0 mm
12:34 57.1 °F /  13.9 °C 54.5 °F /  12.5 °C 30.12 in /  1019.9 hPa South 4.0 mph /  6.4 km/h 8.1 mph /  13 km/h 91 % 0.00 in /  0 mm
12:39 57.4 °F /  14.1 °C 54.8 °F /  12.7 °C 30.12 in /  1019.9 hPa SSW 3.2 mph /  5.1 km/h 8.1 mph /  13 km/h 91 % 0.00 in /  0 mm
12:45 57.7 °F /  14.3 °C 54.8 °F /  12.7 °C 30.11 in /  1019.5 hPa South 5.5 mph /  8.9 km/h 11.5 mph /  18.5 km/h 90 % 0.00 in /  0 mm
12:50 58.0 °F /  14.4 °C 55.1 °F /  12.8 °C 30.10 in /  1019.2 hPa SSE 7.8 mph /  12.6 km/h 10.4 mph /  16.7 km/h 90 % 0.00 in /  0 mm
12:55 58.3 °F /  14.6 °C 55.1 °F /  12.8 °C 30.09 in /  1018.8 hPa SSW 5.5 mph /  8.9 km/h 11.5 mph /  18.5 km/h 89 % 0.00 in /  0 mm
13:00 58.5 °F /  14.7 °C 55.3 °F /  12.9 °C 30.09 in /  1018.8 hPa SSE 6.7 mph /  10.8 km/h 15.0 mph /  24.1 km/h 89 % 0.00 in /  0 mm
13:05 58.8 °F /  14.9 °C 55.6 °F /  13.1 °C 30.09 in /  1018.8 hPa South 5.8 mph /  9.3 km/h 15.0 mph /  24.1 km/h 89 % 0.00 in /  0 mm
13:10 59.1 °F /  15.1 °C 55.5 °F /  13.1 °C 30.08 in /  1018.5 hPa SSW 4.6 mph /  7.4 km/h 11.5 mph /  18.5 km/h 88 % 0.00 in /  0 mm
13:15 59.3 °F /  15.2 °C 55.7 °F /  13.2 °C 30.07 in /  1018.2 hPa South 5.0 mph /  8 km/h 11.5 mph /  18.5 km/h 88 % 0.00 in /  0 mm
13:20 59.6 °F /  15.3 °C 55.7 °F /  13.2 °C 30.07 in /  1018.2 hPa South 4.4 mph /  7.1 km/h 8.1 mph /  13 km/h 87 % 0.00 in /  0 mm
13:25 59.9 °F /  15.5 °C 56.0 °F /  13.3 °C 30.07 in /  1018.2 hPa SSW 9.8 mph /  15.8 km/h 17.3 mph /  27.8 km/h 87 % 0.00 in /  0 mm
13:30 60.2 °F /  15.7 °C 56.0 °F /  13.3 °C 30.07 in /  1018.2 hPa South 5.8 mph /  9.3 km/h 9.0 mph /  14.5 km/h 86 % 0.00 in /  0 mm
13:35 60.4 °F /  15.8 °C 56.2 °F /  13.4 °C 30.07 in /  1018.2 hPa South 6.0 mph /  9.7 km/h 11.5 mph /  18.5 km/h 86 % 0.00 in /  0 mm
13:40 60.6 °F /  15.9 °C 56.1 °F /  13.4 °C 30.05 in /  1017.5 hPa South 4.5 mph /  7.2 km/h 10.4 mph /  16.7 km/h 85 % 0.00 in /  0 mm
13:45 60.7 °F /  15.9 °C 56.2 °F /  13.4 °C 30.05 in /  1017.5 hPa South 8.3 mph /  13.4 km/h 15.0 mph /  24.1 km/h 85 % 0.00 in /  0 mm
13:50 60.9 °F /  16.1 °C 56.4 °F /  13.6 °C 30.05 in /  1017.5 hPa SSW 8.6 mph /  13.8 km/h 16.0 mph /  25.7 km/h 85 % 0.00 in /  0 mm
13:55 61.0 °F /  16.1 °C 56.5 °F /  13.6 °C 30.04 in /  1017.2 hPa SSW 9.5 mph /  15.3 km/h 16.0 mph /  25.7 km/h 85 % 0.00 in /  0 mm
14:00 61.1 °F /  16.2 °C 56.2 °F /  13.4 °C 30.04 in /  1017.2 hPa South 4.0 mph /  6.4 km/h 11.5 mph /  18.5 km/h 84 % 0.00 in /  0 mm
14:05 61.2 °F /  16.2 °C 56.3 °F /  13.5 °C 30.04 in /  1017.2 hPa South 11.5 mph /  18.5 km/h 20.0 mph /  32.2 km/h 84 % 0.00 in /  0 mm
14:10 61.3 °F /  16.3 °C 56.4 °F /  13.6 °C 30.04 in /  1017.2 hPa SSE 5.8 mph /  9.3 km/h 9.2 mph /  14.8 km/h 84 % 0.00 in /  0 mm
14:15 61.3 °F /  16.3 °C 56.4 °F /  13.6 °C 30.04 in /  1017.2 hPa South 6.4 mph /  10.3 km/h 12.0 mph /  19.3 km/h 84 % 0.00 in /  0 mm
14:20 61.3 °F /  16.3 °C 56.4 °F /  13.6 °C 30.03 in /  1016.8 hPa SSE 7.1 mph /  11.4 km/h 15.0 mph /  24.1 km/h 84 % 0.00 in /  0 mm
14:30 61.4 °F /  16.3 °C 56.5 °F /  13.6 °C 30.04 in /  1017.2 hPa SSE 7.0 mph /  11.3 km/h 12.7 mph /  20.4 km/h 84 % 0.00 in /  0 mm
14:35 61.4 °F /  16.3 °C 56.5 °F /  13.6 °C 30.04 in /  1017.2 hPa SSW 7.3 mph /  11.7 km/h 9.2 mph /  14.8 km/h 84 % 0.00 in /  0 mm
14:40 61.4 °F /  16.3 °C 56.5 °F /  13.6 °C 30.04 in /  1017.2 hPa South 9.7 mph /  15.6 km/h 14.0 mph /  22.5 km/h 84 % 0.00 in /  0 mm
14:45 61.4 °F /  16.3 °C 56.5 °F /  13.6 °C 30.04 in /  1017.2 hPa South 6.9 mph /  11.1 km/h 11.5 mph /  18.5 km/h 84 % 0.00 in /  0 mm
14:50 61.4 °F /  16.3 °C 56.5 °F /  13.6 °C 30.04 in /  1017.2 hPa South 8.1 mph /  13 km/h 24.0 mph /  38.6 km/h 84 % 0.00 in /  0 mm
14:55 61.3 °F /  16.3 °C 56.4 °F /  13.6 °C 30.04 in /  1017.2 hPa SSW 9.1 mph /  14.6 km/h 13.8 mph /  22.2 km/h 84 % 0.00 in /  0 mm
15:00 61.2 °F /  16.2 °C 56.7 °F /  13.7 °C 30.04 in /  1017.2 hPa SW 6.9 mph /  11.1 km/h 17.3 mph /  27.8 km/h 85 % 0.00 in /  0 mm
15:05 61.2 °F /  16.2 °C 56.7 °F /  13.7 °C 30.03 in /  1016.8 hPa South 4.7 mph /  7.6 km/h 15.0 mph /  24.1 km/h 85 % 0.00 in /  0 mm
15:15 61.1 °F /  16.2 °C 56.6 °F /  13.7 °C 30.03 in /  1016.8 hPa SSE 8.9 mph /  14.3 km/h 13.8 mph /  22.2 km/h 85 % 0.00 in /  0 mm
15:20 61.0 °F /  16.1 °C 56.5 °F /  13.6 °C 30.02 in /  1016.5 hPa SSW 6.6 mph /  10.6 km/h 16.1 mph /  25.9 km/h 85 % 0.00 in /  0 mm
15:25 60.9 °F /  16.1 °C 56.7 °F /  13.7 °C 30.03 in /  1016.8 hPa South 8.1 mph /  13 km/h 11.5 mph /  18.5 km/h 86 % 0.00 in /  0 mm
15:31 60.8 °F /  16 °C 56.6 °F /  13.7 °C 30.03 in /  1016.8 hPa South 7.3 mph /  11.7 km/h 17.3 mph /  27.8 km/h 86 % 0.00 in /  0 mm
15:36 60.7 °F /  15.9 °C 56.5 °F /  13.6 °C 30.03 in /  1016.8 hPa SSW 8.8 mph /  14.2 km/h 11.5 mph /  18.5 km/h 86 % 0.00 in /  0 mm
15:41 60.6 °F /  15.9 °C 56.4 °F /  13.6 °C 30.02 in /  1016.5 hPa SSW 7.0 mph /  11.3 km/h 12.0 mph /  19.3 km/h 86 % 0.00 in /  0 mm
15:51 60.4 °F /  15.8 °C 56.5 °F /  13.6 °C 30.02 in /  1016.5 hPa SW 9.5 mph /  15.3 km/h 13.8 mph /  22.2 km/h 87 % 0.00 in /  0 mm
15:56 60.3 °F /  15.7 °C 56.4 °F /  13.6 °C 30.02 in /  1016.5 hPa SSW 6.0 mph /  9.7 km/h 15.0 mph /  24.1 km/h 87 % 0.00 in /  0 mm
16:01 60.3 °F /  15.7 °C 56.4 °F /  13.6 °C 30.02 in /  1016.5 hPa SSW 5.9 mph /  9.5 km/h 13.0 mph /  20.9 km/h 87 % 0.00 in /  0 mm
16:06 60.2 °F /  15.7 °C 56.3 °F /  13.5 °C 30.02 in /  1016.5 hPa South 9.5 mph /  15.3 km/h 14.0 mph /  22.5 km/h 87 % 0.00 in /  0 mm
16:11 60.1 °F /  15.6 °C 56.5 °F /  13.6 °C 30.01 in /  1016.1 hPa South 9.0 mph /  14.5 km/h 15.0 mph /  24.1 km/h 88 % 0.00 in /  0 mm
16:16 60.1 °F /  15.6 °C 56.5 °F /  13.6 °C 30.01 in /  1016.1 hPa South 7.0 mph /  11.3 km/h 16.0 mph /  25.7 km/h 88 % 0.00 in /  0 mm
16:21 60.0 °F /  15.6 °C 56.4 °F /  13.6 °C 30.01 in /  1016.1 hPa South 6.0 mph /  9.7 km/h 15.0 mph /  24.1 km/h 88 % 0.00 in /  0 mm
16:26 59.9 °F /  15.5 °C 56.3 °F /  13.5 °C 30.00 in /  1015.8 hPa SSW 7.0 mph /  11.3 km/h 20.0 mph /  32.2 km/h 88 % 0.00 in /  0 mm
16:31 59.8 °F /  15.4 °C 56.2 °F /  13.4 °C 30.00 in /  1015.8 hPa SSW 7.0 mph /  11.3 km/h 16.0 mph /  25.7 km/h 88 % 0.00 in /  0 mm
16:36 59.7 °F /  15.4 °C 56.5 °F /  13.6 °C 30.00 in /  1015.8 hPa South 8.0 mph /  12.9 km/h 13.0 mph /  20.9 km/h 89 % 0.00 in /  0 mm
16:41 59.6 °F /  15.3 °C 56.4 °F /  13.6 °C 30.00 in /  1015.8 hPa South 7.0 mph /  11.3 km/h 16.0 mph /  25.7 km/h 89 % 0.00 in /  0 mm
16:46 59.5 °F /  15.3 °C 56.3 °F /  13.5 °C 30.00 in /  1015.8 hPa South 8.0 mph /  12.9 km/h 18.0 mph /  29 km/h 89 % 0.00 in /  0 mm
16:51 59.5 °F /  15.3 °C 56.6 °F /  13.7 °C 30.00 in /  1015.8 hPa South 6.0 mph /  9.7 km/h 15.0 mph /  24.1 km/h 90 % 0.00 in /  0 mm
16:56 59.5 °F /  15.3 °C 56.6 °F /  13.7 °C 29.99 in /  1015.5 hPa South 8.0 mph /  12.9 km/h 16.0 mph /  25.7 km/h 90 % 0.00 in /  0 mm
17:01 59.6 °F /  15.3 °C 57.0 °F /  13.9 °C 30.00 in /  1015.8 hPa SSW 8.8 mph /  14.2 km/h 12.7 mph /  20.4 km/h 91 % 0.00 in /  0 mm
17:06 59.6 °F /  15.3 °C 57.0 °F /  13.9 °C 30.00 in /  1015.8 hPa South 5.3 mph /  8.5 km/h 13.8 mph /  22.2 km/h 91 % 0.00 in /  0 mm
17:11 59.5 °F /  15.3 °C 57.2 °F /  14 °C 30.00 in /  1015.8 hPa SSW 8.3 mph /  13.4 km/h 9.2 mph /  14.8 km/h 92 % 0.00 in /  0 mm
17:16 59.5 °F /  15.3 °C 57.2 °F /  14 °C 29.99 in /  1015.5 hPa SW 5.0 mph /  8 km/h 12.7 mph /  20.4 km/h 92 % 0.00 in /  0 mm
17:21 59.5 °F /  15.3 °C 57.2 °F /  14 °C 30.00 in /  1015.8 hPa SSW 6.3 mph /  10.1 km/h 12.7 mph /  20.4 km/h 92 % 0.00 in /  0 mm
17:26 59.5 °F /  15.3 °C 57.2 °F /  14 °C 29.99 in /  1015.5 hPa South 4.7 mph /  7.6 km/h 10.4 mph /  16.7 km/h 92 % 0.00 in /  0 mm
17:31 59.5 °F /  15.3 °C 57.5 °F /  14.2 °C 29.98 in /  1015.1 hPa South 7.1 mph /  11.4 km/h 11.5 mph /  18.5 km/h 93 % 0.00 in /  0 mm
17:36 59.5 °F /  15.3 °C 57.5 °F /  14.2 °C 29.98 in /  1015.1 hPa South 6.8 mph /  10.9 km/h 11.5 mph /  18.5 km/h 93 % 0.00 in /  0 mm
17:41 59.4 °F /  15.2 °C 57.4 °F /  14.1 °C 29.97 in /  1014.8 hPa South 7.2 mph /  11.6 km/h 13.8 mph /  22.2 km/h 93 % 0.00 in /  0 mm
17:46 59.4 °F /  15.2 °C 57.4 °F /  14.1 °C 29.97 in /  1014.8 hPa SSW 6.1 mph /  9.8 km/h 10.4 mph /  16.7 km/h 93 % 0.00 in /  0 mm
17:51 59.4 °F /  15.2 °C 57.4 °F /  14.1 °C 29.96 in /  1014.4 hPa SSW 11.2 mph /  18 km/h 19.6 mph /  31.5 km/h 93 % 0.00 in /  0 mm
17:56 59.4 °F /  15.2 °C 57.4 °F /  14.1 °C 29.96 in /  1014.4 hPa SSW 7.5 mph /  12.1 km/h 17.3 mph /  27.8 km/h 93 % 0.00 in /  0 mm
18:01 59.4 °F /  15.2 °C 57.4 °F /  14.1 °C 29.96 in /  1014.4 hPa SSW 7.7 mph /  12.4 km/h 11.5 mph /  18.5 km/h 93 % 0.00 in /  0 mm
18:06 59.4 °F /  15.2 °C 57.4 °F /  14.1 °C 29.96 in /  1014.4 hPa South 5.7 mph /  9.2 km/h 9.0 mph /  14.5 km/h 93 % 0.00 in /  0 mm
18:11 59.4 °F /  15.2 °C 57.4 °F /  14.1 °C 29.95 in /  1014.1 hPa SSW 6.9 mph /  11.1 km/h 13.8 mph /  22.2 km/h 93 % 0.00 in /  0 mm
18:16 59.4 °F /  15.2 °C 57.4 °F /  14.1 °C 29.95 in /  1014.1 hPa South 9.1 mph /  14.6 km/h 15.0 mph /  24.1 km/h 93 % 0.00 in /  0 mm
18:21 59.4 °F /  15.2 °C 57.7 °F /  14.3 °C 29.95 in /  1014.1 hPa SSW 6.8 mph /  10.9 km/h 15.0 mph /  24.1 km/h 94 % 0.00 in /  0 mm
18:26 59.4 °F /  15.2 °C 57.7 °F /  14.3 °C 29.95 in /  1014.1 hPa SSW 8.7 mph /  14 km/h 18.4 mph /  29.6 km/h 94 % 0.00 in /  0 mm
18:31 59.5 °F /  15.3 °C 57.8 °F /  14.3 °C 29.94 in /  1013.8 hPa South 8.3 mph /  13.4 km/h 17.3 mph /  27.8 km/h 94 % 0.00 in /  0 mm
18:36 59.6 °F /  15.3 °C 57.9 °F /  14.4 °C 29.95 in /  1014.1 hPa SSW 10.4 mph /  16.7 km/h 19.6 mph /  31.5 km/h 94 % 0.00 in /  0 mm
18:41 59.7 °F /  15.4 °C 58.0 °F /  14.4 °C 29.94 in /  1013.8 hPa South 13.9 mph /  22.4 km/h 23.0 mph /  37 km/h 94 % 0.00 in /  0 mm
18:46 59.8 °F /  15.4 °C 58.1 °F /  14.5 °C 29.94 in /  1013.8 hPa South 6.1 mph /  9.8 km/h 13.8 mph /  22.2 km/h 94 % 0.00 in /  0 mm
18:51 59.9 °F /  15.5 °C 58.2 °F /  14.6 °C 29.93 in /  1013.4 hPa SSW 7.7 mph /  12.4 km/h 10.4 mph /  16.7 km/h 94 % 0.00 in /  0 mm
18:56 59.9 °F /  15.5 °C 57.9 °F /  14.4 °C 29.93 in /  1013.4 hPa South 5.5 mph /  8.9 km/h 9.0 mph /  14.5 km/h 93 % 0.00 in /  0 mm
19:02 59.9 °F /  15.5 °C 57.9 °F /  14.4 °C 29.93 in /  1013.4 hPa South 10.0 mph /  16.1 km/h 15.0 mph /  24.1 km/h 93 % 0.00 in /  0 mm
19:07 59.9 °F /  15.5 °C 57.9 °F /  14.4 °C 29.93 in /  1013.4 hPa SSW 5.6 mph /  9 km/h 11.5 mph /  18.5 km/h 93 % 0.00 in /  0 mm
19:12 60.0 °F /  15.6 °C 58.0 °F /  14.4 °C 29.92 in /  1013.1 hPa SSW 7.8 mph /  12.6 km/h 12.7 mph /  20.4 km/h 93 % 0.00 in /  0 mm
19:17 60.0 °F /  15.6 °C 58.0 °F /  14.4 °C 29.92 in /  1013.1 hPa South 6.7 mph /  10.8 km/h 11.5 mph /  18.5 km/h 93 % 0.00 in /  0 mm
19:22 60.0 °F /  15.6 °C 58.0 °F /  14.4 °C 29.92 in /  1013.1 hPa SW 8.3 mph /  13.4 km/h 11.5 mph /  18.5 km/h 93 % 0.00 in /  0 mm
19:27 60.0 °F /  15.6 °C 58.0 °F /  14.4 °C 29.92 in /  1013.1 hPa SW 8.5 mph /  13.7 km/h 15.0 mph /  24.1 km/h 93 % 0.00 in /  0 mm
19:32 60.0 °F /  15.6 °C 58.0 °F /  14.4 °C 29.92 in /  1013.1 hPa SSW 7.5 mph /  12.1 km/h 17.3 mph /  27.8 km/h 93 % 0.00 in /  0 mm
19:37 60.1 °F /  15.6 °C 58.1 °F /  14.5 °C 29.91 in /  1012.8 hPa SSW 9.6 mph /  15.4 km/h 16.1 mph /  25.9 km/h 93 % 0.00 in /  0 mm
19:42 60.1 °F /  15.6 °C 58.1 °F /  14.5 °C 29.92 in /  1013.1 hPa SSW 4.7 mph /  7.6 km/h 9.2 mph /  14.8 km/h 93 % 0.00 in /  0 mm
19:47 60.2 °F /  15.7 °C 58.2 °F /  14.6 °C 29.91 in /  1012.8 hPa South 9.2 mph /  14.8 km/h 15.0 mph /  24.1 km/h 93 % 0.00 in /  0 mm
19:48 60.2 °F /  15.7 °C 58.2 °F /  14.6 °C 29.91 in /  1012.8 hPa SSW 9.4 mph /  15.1 km/h 15.0 mph /  24.1 km/h 93 % 0.00 in /  0 mm
19:53 60.2 °F /  15.7 °C 58.2 °F /  14.6 °C 29.91 in /  1012.8 hPa SW 5.8 mph /  9.3 km/h 10.4 mph /  16.7 km/h 93 % 0.00 in /  0 mm
19:58 60.2 °F /  15.7 °C 58.2 °F /  14.6 °C 29.90 in /  1012.4 hPa SSE 10.4 mph /  16.7 km/h 16.1 mph /  25.9 km/h 93 % 0.00 in /  0 mm
20:03 60.2 °F /  15.7 °C 58.2 °F /  14.6 °C 29.91 in /  1012.8 hPa South 9.0 mph /  14.5 km/h 14.0 mph /  22.5 km/h 93 % 0.00 in /  0 mm
20:08 60.2 °F /  15.7 °C 58.2 °F /  14.6 °C 29.90 in /  1012.4 hPa SSE 11.4 mph /  18.3 km/h 20.7 mph /  33.3 km/h 93 % 0.00 in /  0 mm
20:13 60.2 °F /  15.7 °C 58.2 °F /  14.6 °C 29.90 in /  1012.4 hPa South 11.2 mph /  18 km/h 17.3 mph /  27.8 km/h 93 % 0.00 in /  0 mm
20:18 60.2 °F /  15.7 °C 58.2 °F /  14.6 °C 29.90 in /  1012.4 hPa SSW 11.0 mph /  17.7 km/h 19.6 mph /  31.5 km/h 93 % 0.00 in /  0 mm
20:23 60.2 °F /  15.7 °C 58.2 °F /  14.6 °C 29.89 in /  1012.1 hPa SSE 8.2 mph /  13.2 km/h 17.3 mph /  27.8 km/h 93 % 0.00 in /  0 mm
20:28 60.2 °F /  15.7 °C 58.2 °F /  14.6 °C 29.88 in /  1011.7 hPa South 7.0 mph /  11.3 km/h 11.5 mph /  18.5 km/h 93 % 0.00 in /  0 mm
20:33 60.2 °F /  15.7 °C 58.2 °F /  14.6 °C 29.89 in /  1012.1 hPa SSW 11.9 mph /  19.2 km/h 19.6 mph /  31.5 km/h 93 % 0.00 in /  0 mm
20:38 60.2 °F /  15.7 °C 58.2 °F /  14.6 °C 29.88 in /  1011.7 hPa SSW 5.6 mph /  9 km/h 12.7 mph /  20.4 km/h 93 % 0.00 in /  0 mm
20:43 60.2 °F /  15.7 °C 58.5 °F /  14.7 °C 29.88 in /  1011.7 hPa South 7.7 mph /  12.4 km/h 23.0 mph /  37 km/h 94 % 0.00 in /  0 mm
20:48 60.1 °F /  15.6 °C 58.4 °F /  14.7 °C 29.88 in /  1011.7 hPa SSW 5.5 mph /  8.9 km/h 9.0 mph /  14.5 km/h 94 % 0.00 in /  0 mm
20:53 60.1 °F /  15.6 °C 58.4 °F /  14.7 °C 29.87 in /  1011.4 hPa South 10.9 mph /  17.5 km/h 20.7 mph /  33.3 km/h 94 % 0.00 in /  0 mm
20:58 60.0 °F /  15.6 °C 58.3 °F /  14.6 °C 29.87 in /  1011.4 hPa SSW 9.4 mph /  15.1 km/h 19.0 mph /  30.6 km/h 94 % 0.00 in /  0 mm
21:03 60.0 °F /  15.6 °C 58.3 °F /  14.6 °C 29.88 in /  1011.7 hPa SSW 6.5 mph /  10.5 km/h 17.3 mph /  27.8 km/h 94 % 0.00 in /  0 mm
21:08 59.9 °F /  15.5 °C 58.2 °F /  14.6 °C 29.87 in /  1011.4 hPa South 7.3 mph /  11.7 km/h 18.4 mph /  29.6 km/h 94 % 0.00 in /  0 mm
21:13 59.8 °F /  15.4 °C 58.1 °F /  14.5 °C 29.87 in /  1011.4 hPa SSW 12.7 mph /  20.4 km/h 23.0 mph /  37 km/h 94 % 0.00 in /  0 mm
21:18 59.8 °F /  15.4 °C 58.1 °F /  14.5 °C 29.87 in /  1011.4 hPa SSW 10.6 mph /  17.1 km/h 19.6 mph /  31.5 km/h 94 % 0.00 in /  0 mm
21:23 59.6 °F /  15.3 °C 57.9 °F /  14.4 °C 29.87 in /  1011.4 hPa SSW 9.2 mph /  14.8 km/h 16.1 mph /  25.9 km/h 94 % 0.00 in /  0 mm
21:28 59.6 °F /  15.3 °C 58.2 °F /  14.6 °C 29.87 in /  1011.4 hPa SSW 10.2 mph /  16.4 km/h 16.1 mph /  25.9 km/h 95 % 0.00 in /  0 mm
21:33 59.5 °F /  15.3 °C 58.1 °F /  14.5 °C 29.87 in /  1011.4 hPa South 9.1 mph /  14.6 km/h 17.3 mph /  27.8 km/h 95 % 0.00 in /  0 mm
21:38 59.5 °F /  15.3 °C 58.1 °F /  14.5 °C 29.87 in /  1011.4 hPa SW 4.5 mph /  7.2 km/h 7.0 mph /  11.3 km/h 95 % 0.00 in /  0 mm
21:43 59.4 °F /  15.2 °C 58.0 °F /  14.4 °C 29.87 in /  1011.4 hPa SSW 6.7 mph /  10.8 km/h 13.8 mph /  22.2 km/h 95 % 0.00 in /  0 mm
21:48 59.4 °F /  15.2 °C 58.0 °F /  14.4 °C 29.87 in /  1011.4 hPa SW 9.6 mph /  15.4 km/h 19.6 mph /  31.5 km/h 95 % 0.00 in /  0 mm
21:53 59.4 °F /  15.2 °C 58.0 °F /  14.4 °C 29.86 in /  1011.1 hPa SSE 8.2 mph /  13.2 km/h 16.1 mph /  25.9 km/h 95 % 0.00 in /  0 mm
21:58 59.3 °F /  15.2 °C 57.9 °F /  14.4 °C 29.86 in /  1011.1 hPa SSW 10.0 mph /  16.1 km/h 17.3 mph /  27.8 km/h 95 % 0.01 in /  0.25 mm
22:03 59.3 °F /  15.2 °C 57.9 °F /  14.4 °C 29.87 in /  1011.4 hPa WSW 10.5 mph /  16.9 km/h 15.0 mph /  24.1 km/h 95 % 0.02 in /  0.51 mm
22:08 59.3 °F /  15.2 °C 57.9 °F /  14.4 °C 29.87 in /  1011.4 hPa SSW 5.2 mph /  8.4 km/h 9.2 mph /  14.8 km/h 95 % 0.03 in /  0.76 mm
22:13 59.2 °F /  15.1 °C 57.8 °F /  14.3 °C 29.86 in /  1011.1 hPa SSW 2.6 mph /  4.2 km/h 6.9 mph /  11.1 km/h 95 % 0.03 in /  0.76 mm
22:18 59.1 °F /  15.1 °C 57.7 °F /  14.3 °C 29.87 in /  1011.4 hPa West 3.6 mph /  5.8 km/h 10.4 mph /  16.7 km/h 95 % 0.03 in /  0.76 mm
22:23 59.0 °F /  15 °C 57.6 °F /  14.2 °C 29.86 in /  1011.1 hPa South 5.4 mph /  8.7 km/h 9.2 mph /  14.8 km/h 95 % 0.03 in /  0.76 mm
22:28 58.9 °F /  14.9 °C 57.5 °F /  14.2 °C 29.85 in /  1010.7 hPa SSW 5.5 mph /  8.9 km/h 6.9 mph /  11.1 km/h 95 % 0.03 in /  0.76 mm
22:33 58.8 °F /  14.9 °C 57.4 °F /  14.1 °C 29.85 in /  1010.7 hPa SW 1.8 mph /  2.9 km/h 4.0 mph /  6.4 km/h 95 % 0.03 in /  0.76 mm
22:38 58.7 °F /  14.8 °C 57.3 °F /  14.1 °C 29.86 in /  1011.1 hPa SW 4.5 mph /  7.2 km/h 9.2 mph /  14.8 km/h 95 % 0.03 in /  0.76 mm
22:43 58.6 °F /  14.8 °C 57.2 °F /  14 °C 29.85 in /  1010.7 hPa South 2.4 mph /  3.9 km/h 6.9 mph /  11.1 km/h 95 % 0.03 in /  0.76 mm
22:49 58.5 °F /  14.7 °C 57.1 °F /  13.9 °C 29.85 in /  1010.7 hPa South 3.8 mph /  6.1 km/h 5.8 mph /  9.3 km/h 95 % 0.03 in /  0.76 mm
22:54 58.4 °F /  14.7 °C 57.0 °F /  13.9 °C 29.85 in /  1010.7 hPa SSW 2.5 mph /  4 km/h 5.8 mph /  9.3 km/h 95 % 0.03 in /  0.76 mm
22:59 58.3 °F /  14.6 °C 56.9 °F /  13.8 °C 29.86 in /  1011.1 hPa SW 5.9 mph /  9.5 km/h 9.2 mph /  14.8 km/h 95 % 0.02 in /  0.51 mm
23:04 58.2 °F /  14.6 °C 56.8 °F /  13.8 °C 29.85 in /  1010.7 hPa SSW 5.0 mph /  8 km/h 6.9 mph /  11.1 km/h 95 % 0.01 in /  0.25 mm
23:09 58.2 °F /  14.6 °C 56.8 °F /  13.8 °C 29.84 in /  1010.4 hPa SSW 5.2 mph /  8.4 km/h 9.2 mph /  14.8 km/h 95 % 0.00 in /  0 mm
23:14 58.2 °F /  14.6 °C 57.1 °F /  13.9 °C 29.84 in /  1010.4 hPa SSW 4.3 mph /  6.9 km/h 8.1 mph /  13 km/h 96 % 0.01 in /  0.25 mm
23:19 58.1 °F /  14.5 °C 57.0 °F /  13.9 °C 29.83 in /  1010 hPa South 3.2 mph /  5.1 km/h 6.9 mph /  11.1 km/h 96 % 0.01 in /  0.25 mm
23:24 58.1 °F /  14.5 °C 57.0 °F /  13.9 °C 29.83 in /  1010 hPa South 2.6 mph /  4.2 km/h 6.9 mph /  11.1 km/h 96 % 0.01 in /  0.25 mm
23:29 58.1 °F /  14.5 °C 57.0 °F /  13.9 °C 29.82 in /  1009.7 hPa SSW 5.3 mph /  8.5 km/h 11.5 mph /  18.5 km/h 96 % 0.01 in /  0.25 mm
23:34 58.0 °F /  14.4 °C 56.9 °F /  13.8 °C 29.81 in /  1009.4 hPa South 3.0 mph /  4.8 km/h 7.0 mph /  11.3 km/h 96 % 0.01 in /  0.25 mm
23:39 58.0 °F /  14.4 °C 56.9 °F /  13.8 °C 29.81 in /  1009.4 hPa SSW 2.7 mph /  4.3 km/h 4.0 mph /  6.4 km/h 96 % 0.01 in /  0.25 mm
23:44 58.0 °F /  14.4 °C 56.9 °F /  13.8 °C 29.81 in /  1009.4 hPa SW 5.1 mph /  8.2 km/h 8.1 mph /  13 km/h 96 % 0.01 in /  0.25 mm
23:49 58.0 °F /  14.4 °C 56.9 °F /  13.8 °C 29.81 in /  1009.4 hPa SSW 5.9 mph /  9.5 km/h 10.0 mph /  16.1 km/h 96 % 0.01 in /  0.25 mm
23:54 57.9 °F /  14.4 °C 56.8 °F /  13.8 °C 29.81 in /  1009.4 hPa SW 3.5 mph /  5.6 km/h 5.8 mph /  9.3 km/h 96 % 0.01 in /  0.25 mm
23:59 57.9 °F /  14.4 °C 56.8 °F /  13.8 °C 29.80 in /  1009 hPa South 4.1 mph /  6.6 km/h 8.1 mph /  13 km/h 96 % 0.01 in /  0.25 mm
Crab Meadow Weather
Compliments of Weather Underground - 3 mb

Script developed by  Jim McMurry - jmcmurry@mwt.net Adapted for the template by  Wim van der Kuil - Leuven-Template.eu

Clouds: Mostly sunny and mostly clear indicate the same amount of cloud coverage - about 25 percent. Mostly sunny is used during the daytime, and mostly clear is used at night when there is no sun.